Simultaneous Nadir Overpasses (SNOs) Predictions

Prediction of SNOs between NOAA-20 and AQUA Satellite Orbit:

Table of predicted SNOs for the next 14.0 days since TLE Epoch: 2/13/2025
Index Date (NOAA-20) Time (NOAA-20) Lat,Lon (NOAA-20) SZA (NOAA-20 ) Date (AQUA) Time (AQUA) Lat,Lon (AQUA) SZA (AQUA ) Distance(km) Time Diff (sec)
1 02/15/2025 04:16:36 81.31, 46.44 99.92 02/15/2025 04:17:08 81.31, 46.39 99.90 1.35 32
2 02/15/2025 05:07:20 -81.31,-145.92 80.15 02/15/2025 05:06:27 -81.31,-145.74 80.14 3.04 53
3 02/17/2025 14:38:15 -81.31, 71.26 80.97 02/17/2025 14:38:39 -81.31, 71.27 80.98 0.25 24
4 02/17/2025 15:28:59 81.31,-121.01 98.97 02/17/2025 15:27:57 81.32,-120.87 98.99 2.60 62
5 02/20/2025 00:59:55 81.31, 95.72 98.19 02/20/2025 01:00:08 81.31, 95.81 98.17 1.63 13
6 02/20/2025 01:50:38 -81.31, -96.25 81.93 02/20/2025 01:49:27 -81.32, -96.27 81.88 0.67 71
7 02/22/2025 11:21:34 -81.31, 120.43 82.71 02/22/2025 11:21:36 -81.31, 120.52 82.73 1.64 2
8 02/24/2025 20:52:31 -81.31, -23.34 83.45 02/24/2025 20:53:45 -81.27, -23.37 83.51 5.23 74
9 02/24/2025 21:43:12 81.31, 145.56 96.32 02/24/2025 21:43:00 81.32, 145.52 96.33 1.06 12
10 02/27/2025 07:14:07 81.31, 2.51 95.46 02/27/2025 07:15:05 81.32, 2.46 95.43 1.01 58



Historial Predications of SNOs between NOAA-20 and AQUA
